BCS58D LHBP-LRCL

Flight info

Callsign BCS58D
Flight time 0h 40m
Altitude 27000
Route VETIK DCT UVERA DCT RILAS DCT LARMU
Aircraft A306/H-SDE3FGHIRWY/LB1

Departure

Time 2026-05-06 21:53
Airport Budapest Liszt Ferenc International Airport (LHBP)

Arrival

Time 2026-05-06 22:33
Airport Avram Iancu Cluj International Airport (LRCL)
Time Latitude Longitude Altitude Speed Heading
2026-05-06 21:26 47.44201 19.22481 463 ft 0 kts 294°
2026-05-06 21:45 47.44201 19.22487 463 ft 4 kts 328°
2026-05-06 21:45 47.44213 19.22501 463 ft 4 kts 39°
2026-05-06 21:45 47.44229 19.22532 463 ft 4 kts 53°
2026-05-06 21:46 47.44243 19.22542 463 ft 4 kts 354°
2026-05-06 21:46 47.44265 19.22524 463 ft 0 kts 155°
2026-05-06 21:48 47.44262 19.22525 463 ft 3 kts 155°
2026-05-06 21:48 47.44214 19.22569 463 ft 11 kts 141°
2026-05-06 21:48 47.44126 19.22625 463 ft 18 kts 155°
2026-05-06 21:49 47.43980 19.22684 463 ft 25 kts 159°
2026-05-06 21:49 47.43838 19.22809 463 ft 23 kts 150°
2026-05-06 21:49 47.43702 19.22900 463 ft 19 kts 143°
2026-05-06 21:49 47.43607 19.22994 463 ft 14 kts 143°
2026-05-06 21:50 47.43528 19.23082 463 ft 16 kts 144°
2026-05-06 21:50 47.43438 19.23205 463 ft 18 kts 128°
2026-05-06 21:50 47.43386 19.23356 461 ft 16 kts 114°
2026-05-06 21:50 47.43330 19.23526 463 ft 22 kts 116°
2026-05-06 21:51 47.43252 19.23760 462 ft 28 kts 116°
2026-05-06 21:51 47.43164 19.24030 461 ft 25 kts 127°
2026-05-06 21:51 47.43089 19.24256 463 ft 27 kts 115°
2026-05-06 21:51 47.43002 19.24514 463 ft 28 kts 114°
2026-05-06 21:52 47.42929 19.24756 463 ft 23 kts 104°
2026-05-06 21:52 47.43008 19.24922 464 ft 23 kts 25°
2026-05-06 21:52 47.43165 19.24837 463 ft 33 kts 313°
2026-05-06 21:52 47.43491 19.24307 461 ft 110 kts 311°
2026-05-06 21:53 47.44163 19.23222 464 ft 183 kts 313°
2026-05-06 21:53 47.45159 19.21664 1063 ft 217 kts 313°
2026-05-06 21:53 47.46224 19.20079 2486 ft 213 kts 309°
2026-05-06 21:53 47.47262 19.18541 3520 ft 214 kts 304°
2026-05-06 21:54 47.48271 19.16907 4421 ft 217 kts 308°
2026-05-06 21:54 47.49520 19.15467 5083 ft 242 kts 327°
2026-05-06 21:54 47.51217 19.14667 5621 ft 275 kts 348°
2026-05-06 21:54 47.53252 19.14706 5976 ft 306 kts
2026-05-06 21:55 47.55249 19.15730 7066 ft 301 kts 28°
2026-05-06 21:55 47.56995 19.17526 7851 ft 315 kts 43°
2026-05-06 21:55 47.58528 19.19907 8686 ft 319 kts 47°
2026-05-06 21:55 47.60132 19.22148 9909 ft 313 kts 41°
2026-05-06 21:56 47.61815 19.24112 10900 ft 312 kts 36°
2026-05-06 21:56 47.63624 19.25958 11816 ft 313 kts 33°
2026-05-06 21:56 47.65449 19.27669 12680 ft 315 kts 31°
2026-05-06 21:56 47.67343 19.29361 13534 ft 318 kts 30°
2026-05-06 21:57 47.69256 19.31028 14277 ft 322 kts 30°
2026-05-06 21:57 47.71086 19.32984 14980 ft 325 kts 41°
2026-05-06 21:57 47.72754 19.35277 15681 ft 328 kts 47°
2026-05-06 21:57 47.74126 19.37990 16345 ft 330 kts 64°
2026-05-06 21:58 47.74802 19.41228 16975 ft 327 kts 90°
2026-05-06 21:58 47.74489 19.44516 17605 ft 319 kts 118°
2026-05-06 21:58 47.73376 19.47328 18266 ft 316 kts 129°
2026-05-06 21:58 47.72363 19.50230 18756 ft 328 kts 112°
2026-05-06 21:59 47.71749 19.53515 19305 ft 333 kts 107°
2026-05-06 21:59 47.71268 19.56922 19874 ft 337 kts 104°
2026-05-06 21:59 47.70868 19.60375 20422 ft 341 kts 103°
2026-05-06 21:59 47.70500 19.63867 20974 ft 345 kts 102°
2026-05-06 22:00 47.70134 19.67405 21525 ft 348 kts 102°
2026-05-06 22:00 47.69757 19.70965 22080 ft 350 kts 102°
2026-05-06 22:00 47.69363 19.74564 22629 ft 353 kts 103°
2026-05-06 22:00 47.68958 19.78171 23167 ft 356 kts 103°
2026-05-06 22:01 47.68547 19.81762 23656 ft 359 kts 103°
2026-05-06 22:01 47.68122 19.85430 24112 ft 361 kts 103°
2026-05-06 22:01 47.67693 19.89108 24548 ft 363 kts 103°
2026-05-06 22:01 47.67257 19.92831 25006 ft 365 kts 103°
2026-05-06 22:02 47.66822 19.96550 25450 ft 367 kts 103°
2026-05-06 22:02 47.66384 20.00281 25945 ft 367 kts 103°
2026-05-06 22:02 47.65952 20.03964 26493 ft 365 kts 103°
2026-05-06 22:02 47.65507 20.07736 26901 ft 369 kts 103°
2026-05-06 22:03 47.65064 20.11471 27010 ft 379 kts 103°
2026-05-06 22:03 47.64595 20.15390 27020 ft 391 kts 103°
2026-05-06 22:03 47.64110 20.19440 27023 ft 404 kts 102°
2026-05-06 22:03 47.63610 20.23614 27014 ft 417 kts 102°
2026-05-06 22:04 47.63095 20.27908 27008 ft 428 kts 102°
2026-05-06 22:04 47.62569 20.32293 27013 ft 439 kts 102°
2026-05-06 22:04 47.62024 20.36828 27008 ft 448 kts 102°
2026-05-06 22:04 47.61478 20.41353 27004 ft 453 kts 102°
2026-05-06 22:05 47.60923 20.45945 26998 ft 453 kts 102°
2026-05-06 22:05 47.60363 20.50559 27001 ft 453 kts 102°
2026-05-06 22:05 47.59803 20.55155 27002 ft 453 kts 102°
2026-05-06 22:05 47.59242 20.59743 27000 ft 453 kts 102°
2026-05-06 22:06 47.58677 20.64336 26997 ft 453 kts 102°
2026-05-06 22:06 47.58110 20.68922 27003 ft 453 kts 102°
2026-05-06 22:06 47.57541 20.73517 26998 ft 453 kts 102°
2026-05-06 22:06 47.56968 20.78119 27001 ft 453 kts 102°
2026-05-06 22:07 47.56392 20.82728 27001 ft 453 kts 102°
2026-05-06 22:07 47.55826 20.87249 26996 ft 453 kts 102°
2026-05-06 22:07 47.55248 20.91850 26998 ft 454 kts 102°
2026-05-06 22:07 47.55052 20.93404 27006 ft 454 kts 102°
2026-05-06 22:08 47.54406 20.98520 27008 ft 453 kts 102°
2026-05-06 22:08 47.53825 21.03104 27010 ft 453 kts 102°
2026-05-06 22:09 47.53240 21.07703 27009 ft 453 kts 102°
2026-05-06 22:09 47.52662 21.12237 27003 ft 454 kts 102°
2026-05-06 22:09 47.52075 21.16819 27009 ft 453 kts 102°
2026-05-06 22:09 47.51486 21.21411 27013 ft 454 kts 102°
2026-05-06 22:10 47.50895 21.25998 27017 ft 454 kts 102°
2026-05-06 22:10 47.50303 21.30575 27024 ft 454 kts 102°
2026-05-06 22:10 47.49708 21.35157 27018 ft 454 kts 102°
2026-05-06 22:10 47.49111 21.39747 27029 ft 454 kts 102°
2026-05-06 22:11 47.48512 21.44333 27022 ft 454 kts 102°
2026-05-06 22:11 47.47912 21.48918 27027 ft 453 kts 102°
2026-05-06 22:11 47.47317 21.53441 27023 ft 453 kts 102°
2026-05-06 22:11 47.46714 21.58015 27029 ft 453 kts 102°
2026-05-06 22:12 47.46112 21.62574 27025 ft 448 kts 102°
2026-05-06 22:12 47.45516 21.67067 27018 ft 442 kts 102°
2026-05-06 22:12 47.44926 21.71503 27021 ft 440 kts 102°
2026-05-06 22:12 47.44333 21.75945 27027 ft 439 kts 102°
2026-05-06 22:13 47.43740 21.80367 27029 ft 439 kts 102°
2026-05-06 22:13 47.43145 21.84787 27027 ft 439 kts 102°
2026-05-06 22:13 47.42547 21.89221 27019 ft 439 kts 102°
2026-05-06 22:13 47.41958 21.93581 27020 ft 439 kts 102°
2026-05-06 22:14 47.41357 21.98012 27037 ft 442 kts 102°
2026-05-06 22:14 47.40745 22.02506 27028 ft 450 kts 102°
2026-05-06 22:14 47.40122 22.07062 27027 ft 453 kts 102°
2026-05-06 22:14 47.39499 22.11618 27034 ft 453 kts 102°
2026-05-06 22:15 47.38872 22.16184 27037 ft 453 kts 102°
2026-05-06 22:15 47.38457 22.19203 27032 ft 453 kts 102°
2026-05-06 22:15 47.37827 22.23772 27041 ft 453 kts 102°
2026-05-06 22:15 47.36987 22.29832 27035 ft 453 kts 102°
2026-05-06 22:16 47.36558 22.32919 27038 ft 453 kts 102°
2026-05-06 22:16 47.35924 22.37474 27026 ft 453 kts 102°
2026-05-06 22:16 47.35288 22.42026 27035 ft 453 kts 102°
2026-05-06 22:16 47.34659 22.46508 27050 ft 453 kts 102°
2026-05-06 22:17 47.34019 22.51064 27047 ft 453 kts 102°
2026-05-06 22:17 47.33378 22.55612 27037 ft 453 kts 102°
2026-05-06 22:17 47.32735 22.60159 27015 ft 451 kts 102°
2026-05-06 22:17 47.32095 22.64675 26453 ft 447 kts 103°
2026-05-06 22:18 47.31461 22.69134 25983 ft 440 kts 103°
2026-05-06 22:18 47.30843 22.73465 25507 ft 434 kts 103°
2026-05-06 22:18 47.30223 22.77802 24949 ft 430 kts 103°
2026-05-06 22:18 47.29606 22.82098 24406 ft 426 kts 103°
2026-05-06 22:19 47.28993 22.86359 23873 ft 423 kts 103°
2026-05-06 22:19 47.28383 22.90582 23336 ft 419 kts 103°
2026-05-06 22:19 47.27784 22.94717 22609 ft 419 kts 103°
2026-05-06 22:19 47.27164 22.98984 21861 ft 419 kts 103°
2026-05-06 22:20 47.26563 23.03113 21152 ft 418 kts 103°
2026-05-06 22:20 47.25953 23.07292 20452 ft 416 kts 103°
2026-05-06 22:20 47.25207 23.11388 19749 ft 414 kts 114°
2026-05-06 22:20 47.23711 23.14957 19087 ft 409 kts 131°
2026-05-06 22:21 47.21663 23.17826 18442 ft 405 kts 141°
2026-05-06 22:21 47.19496 23.20448 17724 ft 402 kts 142°
2026-05-06 22:21 47.17330 23.23034 16992 ft 400 kts 142°
2026-05-06 22:21 47.15184 23.25608 16272 ft 397 kts 142°
2026-05-06 22:22 47.13052 23.28177 15572 ft 394 kts 142°
2026-05-06 22:22 47.10942 23.30724 14887 ft 391 kts 142°
2026-05-06 22:22 47.08871 23.33230 14225 ft 388 kts 142°
2026-05-06 22:22 47.06793 23.35742 13534 ft 385 kts 142°
2026-05-06 22:23 47.04738 23.38225 12800 ft 382 kts 142°
2026-05-06 22:23 47.02833 23.40919 12086 ft 380 kts 134°
2026-05-06 22:23 47.01098 23.43824 11381 ft 377 kts 131°
2026-05-06 22:23 46.99450 23.46808 10701 ft 373 kts 130°
2026-05-06 22:24 46.97886 23.49778 10245 ft 364 kts 129°
2026-05-06 22:24 46.96388 23.52683 10062 ft 347 kts 129°
2026-05-06 22:24 46.95001 23.55384 9787 ft 318 kts 129°
2026-05-06 22:24 46.93720 23.57871 9490 ft 294 kts 129°
2026-05-06 22:25 46.92504 23.60217 9214 ft 285 kts 129°
2026-05-06 22:25 46.91529 23.62744 8960 ft 287 kts 112°
2026-05-06 22:25 46.91020 23.65541 8722 ft 289 kts 104°
2026-05-06 22:25 46.90698 23.68416 8462 ft 283 kts 99°
2026-05-06 22:26 46.90487 23.71280 8027 ft 285 kts 96°
2026-05-06 22:26 46.90632 23.74152 7415 ft 283 kts 79°
2026-05-06 22:26 46.91094 23.76921 6836 ft 278 kts 76°
2026-05-06 22:26 46.91654 23.79614 6233 ft 275 kts 73°
2026-05-06 22:27 46.92256 23.82249 5604 ft 271 kts 72°
2026-05-06 22:27 46.93113 23.84684 4983 ft 269 kts 52°
2026-05-06 22:27 46.94064 23.86949 4386 ft 263 kts 77°
2026-05-06 22:27 46.93967 23.89491 4292 ft 242 kts 116°
2026-05-06 22:28 46.92917 23.91241 4295 ft 231 kts 154°
2026-05-06 22:28 46.91420 23.91666 4290 ft 213 kts 187°
2026-05-06 22:28 46.90000 23.91206 4336 ft 208 kts 197°
2026-05-06 22:28 46.88559 23.90929 4299 ft 211 kts 180°
2026-05-06 22:29 46.87086 23.90957 4182 ft 211 kts 183°
2026-05-06 22:29 46.85662 23.90698 4038 ft 201 kts 195°
2026-05-06 22:29 46.84416 23.89923 3900 ft 191 kts 213°
2026-05-06 22:29 46.83474 23.88642 3763 ft 186 kts 233°
2026-05-06 22:30 46.82882 23.86953 3468 ft 184 kts 250°
2026-05-06 22:30 46.82501 23.85241 3253 ft 175 kts 251°
2026-05-06 22:30 46.82122 23.83592 3011 ft 167 kts 251°
2026-05-06 22:30 46.81700 23.82075 2829 ft 157 kts 235°
2026-05-06 22:31 46.81060 23.80800 2540 ft 154 kts 231°
2026-05-06 22:31 46.80477 23.79472 2473 ft 158 kts 244°
2026-05-06 22:31 46.80071 23.77971 2262 ft 156 kts 243°
2026-05-06 22:31 46.79719 23.76492 2053 ft 154 kts 249°
2026-05-06 22:32 46.79408 23.75014 1780 ft 152 kts 255°
2026-05-06 22:32 46.79166 23.73554 1534 ft 148 kts 259°
2026-05-06 22:32 46.78969 23.72072 1318 ft 148 kts 256°
2026-05-06 22:32 46.78773 23.70583 1157 ft 154 kts 259°
2026-05-06 22:33 46.78583 23.69094 1047 ft 139 kts 259°
2026-05-06 22:33 46.78420 23.67925 1044 ft 91 kts 259°
2026-05-06 22:33 46.78347 23.67329 1045 ft 29 kts 267°
2026-05-06 22:33 46.78343 23.67275 1045 ft 1 kts 220°
2026-05-06 22:34 46.78337 23.67277 1045 ft 2 kts 178°
2026-05-06 22:34 46.78332 23.67298 1045 ft 4 kts 95°
2026-05-06 22:34 46.78350 23.67372 1045 ft 10 kts 64°
2026-05-06 22:34 46.78360 23.67467 1045 ft 13 kts 78°
2026-05-06 22:35 46.78383 23.67648 1043 ft 23 kts 80°
2026-05-06 22:35 46.78419 23.67922 1044 ft 31 kts 78°
2026-05-06 22:35 46.78460 23.68236 1046 ft 30 kts 80°
2026-05-06 22:35 46.78509 23.68569 1046 ft 37 kts 82°
2026-05-06 22:36 46.78558 23.68939 1045 ft 25 kts 77°
2026-05-06 22:36 46.78565 23.69132 1046 ft 10 kts 137°
2026-05-06 22:36 46.78509 23.69143 1045 ft 11 kts 175°
2026-05-06 22:36 46.78445 23.69149 1045 ft 0 kts 171°
2026-05-06 22:37 46.78319 23.68782 1045 ft 0 kts 95°